NOAA 16 DEB, 41263

Orbit data source: Space-Track

NOAA 16 DEB, 41263 is space debris in SSO originally from a launch on Thu, 21 Sep 2000 UTC launched from the Air Force Western Test Range (AFWTR). Debris objects in space refer to the collection of defunct objects orbiting the Earth. Examples of debris include non-operational satellites, rocket bodies, and fragments generated from explosions, collisions, or faulty payload assembly.

Loading next visibility...
Identifier
41263, 2000-055FP
Orbit
SSO
Country
Flag of USUS
Related business
Manufacturer
Unknown
Mission
Spacecraft
Bus & Motor
Unknown
Mass
Unknown
Launch date (UTC)
2000-09-21 (26 years ago)
Launch vehicle
Unknown
Launch site
Air Force Western Test Range (AFWTR)
Object type
Payload
Rocket body
Debris
Shape & HBR
Unknown shape, 0.1 m
Radar Cross Section
Medium (>0.1 m² and <1 m²)

Expand to show TLE details & history
Last TLE update: 3 days ago

TLE from 3 days ago
0 NOAA 16 DEB
1 41263U 00055FP  26170.49931230  .00003885  00000-0  19041-2 0  9994
2 41263  98.8283 191.4400 0068748  56.3623 304.4086 14.17148121535966
Epoch: 2026-06-19T11:59Z
TLE epoch observation values (Epoch: 2026-06-19T11:59:00.582Z)
Latitude
0.00003°
Longitude
103.96016°
Altitude
810.126 km
Speed
7.463 km/s
True Right ascension
12h 45m 45s
True Declination
0° 00' 00"
Sunlit
Object was in daylight at epoch
Visualization orbit readout
Latitude
Unknown
Longitude
Unknown
Altitude
Unknown
Speed
Unknown
Apparent Right ascension
Unknown
Apparent Declination
Unknown
Sunlit
N/A
Visualization observer readout
Local Sidereal Time
21:35:14
Azimuth
Unknown
Elevation
Unknown
Doppler factor
Unknown
Orbital elements
Apogee altitude
881.751 km
Perigee altitude
782.612 km
Semi-major axis
7,210.319 km
Eccentricity
0.00687
Inclination
98.8283°
RAAN
191.44°
Arg. of periapsis
56.3623°
True anomaly
303.75549°
Mean anomaly
304.4086°
Eccentric anomaly
304.08236°
Mean motion
3.54496 °/min
Orbital period
101.55 mins
BSTAR
0.0019041
Loading maneuver chart data...
Computing Atmospheric mass density...
Loading historical data...
Loading historical data...
Loading historical data...
Loading historical data...
Loading historical data...
Loading historical data...
Loading historical data...

Documentation

Showing up to 5 results
|